[Iaude] MPEC V166: 2023 VK5 [a=2.67,e=0.55,i=14.7,H=22.8]
    mpec at marsden.cfa.harvard.edu 
    mpec at marsden.cfa.harvard.edu
       
    Fri Nov 10 06:18:12 EST 2023
    
    
  
M.P.E.C. 2023-V166                            Issued 2023 November 10, 11:16 UT
     The Minor Planet Electronic Circulars contain information on unusual
         minor planets, routine data on comets and natural satellites,
         and occasional editorial announcements.  They are published
    on behalf of Division F of the International Astronomical Union by the
          Minor Planet Center, Smithsonian Astrophysical Observatory,
                          Cambridge, MA 02138, U.S.A.
			  
             Prepared using the Tamkin Foundation Computer Network
                              MPC at CFA.HARVARD.EDU
            URL https://www.minorplanetcenter.net/    ISSN 1523-6714
                                    2023 VK5                                    
Observations:
     K23V05K*1C2023 11 08.33624903 25 20.489-03 49 29.86         20.93GVEV166G96
     K23V05K 1C2023 11 08.34140803 25 20.510-03 49 08.08         20.80GVEV166G96
     K23V05K 1C2023 11 08.34655303 25 20.521-03 48 46.51         20.84GVEV166G96
     K23V05K 1C2023 11 08.35171903 25 20.550-03 48 24.37         20.39GVEV166G96
     K23V05K KC2023 11 08.42442003 25 20.942-03 43 14.99         20.77GVEV166I52
     K23V05K KC2023 11 08.42640603 25 20.960-03 43 07.07         20.59GVEV166I52
     K23V05K KC2023 11 08.42839103 25 20.953-03 42 58.50         20.48GVEV166I52
     K23V05K 1C2023 11 08.98696 03 25 32.02 -03 03 17.1          20.5 VXEV166033
     K23V05K 1C2023 11 08.98840 03 25 32.02 -03 03 10.8          20.6 VXEV166033
     K23V05K 1C2023 11 08.98984 03 25 32.03 -03 03 04.7          20.7 VXEV166033
     K23V05K KC2023 11 09.25217903 25 37.513-02 44 00.82         21.12GVEV166I52
     K23V05K KC2023 11 09.25321803 25 37.513-02 43 57.72               VEV166I52
     K23V05K KC2023 11 09.25425803 25 37.560-02 43 53.47               VEV166I52
     K23V05K KC2023 11 09.25529103 25 37.574-02 43 49.37               VEV166I52
     K23V05K KC2023 11 10.43415403 25 54.640-01 17 22.30         20.35GVEV166I52
     K23V05K KC2023 11 10.43801803 25 54.650-01 17 06.90         20.95GVEV166I52
     K23V05K KC2023 11 10.44901603 25 54.770-01 16 18.20               VEV166I52
Observer details:
033 Karl Schwarzschild Observatory, Tautenburg.  Observers S. Melnikov, C.
    Hogner, F. Ludwig, M. Hartmann, B. Stecklum.  Measurer B. Stecklum.
    1.34-m f/3 Schmidt + CCD.
G96 Mt. Lemmon Survey.  Observer D. Rankin.  Measurers E. C. Beshore, D. Fay,
    J. B. Fazekas, D. C. Fuls, A. R. Gibbs, A. D. Grauer, H. Groeller, J. K.
    Hogan, R. A. Kowalski, S. M. Larson, G. J. Leonard, D. Rankin, R. L.
    Seaman, F. C. Shelly, K. W. Wierzchos.  1.5-m reflector + 10K CCD.
I52 Steward Observatory, Mt. Lemmon Station.  Observer H. Groeller.  Measurers
    E. C. Beshore, D. Fay, J. B. Fazekas, D. C. Fuls, A. R. Gibbs, A. D.
    Grauer, H. Groeller, J. K. Hogan, R. A. Kowalski, S. M. Larson, G. J.
    Leonard, D. Rankin, R. L. Seaman, F. C. Shelly, K. W. Wierzchos.  1.0-m
    prime focus + CCD.
Orbital elements:
2023 VK5                                                 Earth MOID = 0.2182 AU
Epoch 2023 Sept. 13.0 TT = JDT 2460200.5                MPC                     
M 346.11108              (2000.0)            P               Q                  
n   0.22630935     Peri.  348.64024     +0.63796915     -0.73713546             
a   2.6668651      Node    61.29641     +0.72492486     +0.47730829             
e   0.5486301      Incl.   14.71319     +0.25976779     +0.47833892             
P   4.36           H   22.84          G   0.15           U   9                  
Residuals in seconds of arc
231108 G96  0.1+  0.1+    231108 I52  0.2-  0.0     231109 I52  0.2+  0.7-
231108 G96  0.1+  0.0     231108 033  0.1-  0.4+    231109 I52  0.4+  1.1-
231108 G96  0.1-  0.2-    231108 033  0.3-  0.5+    231110 I52  0.0   1.4+
231108 G96  0.0   0.0     231108 033  0.3-  0.3+    231110 I52  0.2-  0.4-
231108 I52  0.0   0.4+    231109 I52  0.3-  1.0+    231110 I52  0.5+  0.8-
231108 I52  0.1+  0.1-    231109 I52  0.4-  0.5-
Ephemeris:
2023 VK5                 a,e,i = 2.67, 0.55, 15                  q = 1.2037
Date    TT    R. A. (2000) Decl.     Delta      r    Elong.  Phase     V
2023 10 11    03 06 58.5 -23 46 06   0.3340  1.2637   137.1    32.6    22.3
...
2023 10 26    03 19 26.4 -16 27 53   0.2663  1.2224   145.2    27.7    21.6
...
2023 11 03    03 23 29.1 -09 38 01   0.2400  1.2097   152.2    22.5    21.2
...
2023 11 09    03 25 32.3 -03 01 53   0.2265  1.2048   158.9    17.2    20.9
2023 11 10    03 25 49.1 -01 49 11   0.2249  1.2044   160.1    16.3    20.9
2023 11 11    03 26 05.1 -00 34 49   0.2235  1.2041   161.3    15.3    20.8
...
2023 11 17    03 27 30.9 +07 18 00   0.2192  1.2045   168.5     9.4    20.6
...
2023 11 25    03 29 37.8 +18 07 28   0.2256  1.2113   172.4     6.2    20.5
...
2023 12 10    03 37 31.7 +34 42 12   0.2738  1.2424   157.6    17.6    21.4
A. U. Tomatic                (C) Copyright 2023 MPC           M.P.E.C. 2023-V166
    
    
More information about the Iaude
mailing list